Precipitable_Water
2.08 2.03 2.04 2.03 2.01 1.99 1.92 1.86 1.82 1.79 1.77 1.77 1.76 1.76 1.79 1.77 1.76 1.76 1.78 1.77 1.75 1.74 1.73 1.69 1.60 1.52 1.47 1.43 1.43 1.45 1.46 1.49 1.52 1.58 1.61 1.64 1.69 1.73 1.69 1.68 1.71 1.73 1.73 1.71 1.69 1.65 1.62 1.58 1.55 1.55 1.55 1.60 1.65 1.67 1.71 1.75 1.82 1.87 1.93 1.89 1.83 1.80 1.77 1.78 1.79 1.86 1.86 1.89 1.87 1.82 1.82 1.89 1.94 1.97 1.92 1.87 1.89 1.87 1.87 1.84 1.79 1.80 1.78 1.80 1.81
2.00 2.06 2.01 1.96 1.91 1.86 1.81 1.77 1.74 1.75 1.75 1.74 1.73 1.72 1.72 1.72 1.73 1.72 1.72 1.70 1.66 1.64 1.61 1.58 1.51 1.45 1.41 1.43 1.48 1.54 1.60 1.67 1.73 1.76 1.76 1.73 1.76 1.75 1.73 1.73 1.75 1.75 1.76 1.74 1.68 1.62 1.57 1.57 1.61 1.68 1.71 1.75 1.75 1.75 1.78 1.83 1.85 1.90 1.95 1.94 1.87 1.84 1.88 1.80 1.85 1.93 1.89 1.90 1.92 1.92 1.96 1.99 1.98 1.96 1.99 1.91 1.88 1.91 1.92 1.88 1.88 1.85 1.84 1.84 1.84
2.06 2.04 1.97 1.91 1.86 1.83 1.80 1.75 1.71 1.72 1.75 1.74 1.69 1.67 1.66 1.66 1.63 1.59 1.57 1.53 1.50 1.48 1.46 1.44 1.43 1.41 1.44 1.48 1.54 1.63 1.72 1.80 1.80 1.77 1.77 1.80 1.79 1.77 1.79 1.79 1.80 1.80 1.77 1.76 1.72 1.64 1.59 1.62 1.72 1.78 1.78 1.80 1.81 1.82 1.85 1.86 1.88 1.87 1.92 1.90 1.86 1.88 1.87 1.85 1.89 1.92 1.84 1.88 2.00 2.02 1.99 1.99 1.93 1.92 1.95 1.88 1.86 1.92 1.94 1.93 1.84 1.86 1.84 1.86 1.86
1.98 1.95 1.94 1.91 1.88 1.84 1.78 1.71 1.66 1.65 1.62 1.56 1.51 1.45 1.43 1.42 1.40 1.42 1.42 1.42 1.43 1.45 1.45 1.47 1.49 1.51 1.55 1.60 1.71 1.75 1.76 1.76 1.76 1.79 1.78 1.79 1.80 1.80 1.83 1.84 1.84 1.82 1.81 1.80 1.74 1.65 1.63 1.75 1.84 1.83 1.83 1.86 1.89 1.88 1.87 1.88 1.93 1.92 1.96 1.95 1.91 1.92 1.82 1.84 1.95 1.96 1.90 1.90 1.99 1.97 1.95 1.95 1.99 1.99 1.94 1.88 1.87 1.91 1.95 1.90 1.83 1.82 1.85 1.85 1.86
1.96 1.94 1.91 1.90 1.87 1.83 1.76 1.69 1.60 1.51 1.45 1.39 1.33 1.31 1.33 1.37 1.40 1.42 1.45 1.47 1.49 1.52 1.56 1.60 1.62 1.67 1.72 1.80 1.81 1.78 1.75 1.77 1.81 1.81 1.82 1.81 1.87 1.89 1.86 1.88 1.88 1.85 1.83 1.81 1.74 1.67 1.72 1.84 1.85 1.86 1.87 1.90 1.92 1.90 1.89 1.89 1.93 1.99 1.99 1.98 1.99 1.98 1.91 1.87 1.93 1.93 1.86 1.86 1.91 1.94 1.92 1.96 1.96 2.00 1.89 1.87 1.91 1.92 1.91 1.85 1.83 1.86 1.84 1.86 1.83
1.93 1.90 1.88 1.85 1.83 1.77 1.69 1.56 1.49 1.44 1.41 1.42 1.42 1.46 1.50 1.50 1.50 1.52 1.54 1.61 1.68 1.70 1.71 1.75 1.79 1.78 1.77 1.81 1.80 1.80 1.82 1.80 1.84 1.83 1.83 1.88 1.90 1.93 1.91 1.92 1.92 1.88 1.88 1.83 1.79 1.77 1.82 1.83 1.85 1.87 1.88 1.90 1.91 1.93 1.93 1.91 1.89 1.93 1.95 1.97 1.99 1.98 1.89 1.85 1.83 1.87 1.90 1.92 1.95 1.97 1.95 1.97 1.94 1.90 1.83 1.82 1.89 1.94 1.91 1.88 1.83 1.83 1.84 1.82 1.77
1.86 1.86 1.84 1.82 1.75 1.64 1.53 1.45 1.41 1.44 1.50 1.53 1.55 1.57 1.59 1.58 1.56 1.56 1.58 1.62 1.67 1.72 1.77 1.81 1.84 1.80 1.75 1.75 1.81 1.85 1.81 1.86 1.86 1.87 1.81 1.88 1.92 1.92 1.92 1.91 1.90 1.89 1.87 1.83 1.79 1.82 1.87 1.88 1.86 1.87 1.89 1.91 1.91 1.92 1.93 1.93 1.92 1.90 1.89 1.93 1.92 1.85 1.80 1.72 1.73 1.80 1.90 1.91 1.87 1.97 1.93 1.93 1.83 1.92 1.93 1.94 1.93 1.91 1.88 1.90 1.83 1.82 1.81 1.80 1.81
1.78 1.78 1.73 1.68 1.64 1.55 1.47 1.40 1.44 1.53 1.57 1.59 1.61 1.65 1.69 1.63 1.61 1.61 1.68 1.76 1.77 1.79 1.82 1.83 1.87 1.89 1.80 1.80 1.80 1.80 1.79 1.84 1.81 1.79 1.85 1.90 1.91 1.91 1.86 1.88 1.90 1.90 1.89 1.83 1.84 1.85 1.88 1.92 1.89 1.91 1.92 1.89 1.92 1.93 1.93 1.90 1.93 1.90 1.84 1.82 1.80 1.76 1.71 1.68 1.66 1.78 1.76 1.91 1.92 1.91 1.95 1.95 1.92 1.95 1.95 1.94 1.90 1.88 1.87 1.89 1.81 1.76 1.71 1.69 1.67
1.73 1.72 1.68 1.70 1.64 1.53 1.44 1.45 1.52 1.56 1.58 1.61 1.67 1.74 1.75 1.74 1.79 1.75 1.77 1.79 1.80 1.82 1.83 1.81 1.83 1.82 1.83 1.84 1.78 1.81 1.83 1.83 1.85 1.84 1.89 1.93 1.94 1.91 1.90 1.91 1.91 1.91 1.89 1.86 1.84 1.87 1.91 1.91 1.90 1.91 1.92 1.93 1.93 1.95 1.95 1.95 1.92 1.89 1.85 1.84 1.80 1.75 1.69 1.66 1.74 1.83 1.80 1.81 1.94 1.97 1.98 2.00 1.96 1.93 1.88 1.82 1.79 1.79 1.77 1.74 1.62 1.60 1.61 1.62 1.65
1.73 1.69 1.72 1.73 1.61 1.49 1.47 1.53 1.58 1.60 1.59 1.60 1.67 1.73 1.72 1.73 1.81 1.81 1.76 1.80 1.79 1.80 1.81 1.79 1.77 1.80 1.85 1.88 1.80 1.83 1.84 1.83 1.84 1.89 1.90 1.91 1.91 1.90 1.89 1.90 1.89 1.89 1.91 1.86 1.81 1.85 1.91 1.91 1.89 1.90 1.92 1.93 1.94 1.95 1.97 1.96 1.94 1.87 1.83 1.81 1.75 1.70 1.67 1.72 1.79 1.84 1.81 1.86 1.90 1.90 1.96 2.00 1.99 1.98 1.93 1.93 1.91 1.89 1.90 1.88 1.72 1.65 1.65 1.69 1.67
1.69 1.68 1.73 1.68 1.55 1.52 1.53 1.56 1.63 1.65 1.59 1.60 1.63 1.72 1.76 1.75 1.77 1.84 1.78 1.81 1.81 1.82 1.76 1.76 1.78 1.82 1.90 1.86 1.82 1.84 1.91 1.90 1.86 1.86 1.87 1.88 1.90 1.89 1.87 1.86 1.86 1.87 1.86 1.86 1.84 1.86 1.92 1.91 1.89 1.91 1.91 1.90 1.89 1.88 1.93 1.95 1.91 1.82 1.78 1.75 1.70 1.64 1.72 1.77 1.84 1.84 1.92 1.90 1.95 1.97 1.98 1.91 1.89 1.93 1.92 1.92 1.93 1.84 1.78 1.69 1.67 1.68 1.70 1.67 1.64
1.63 1.63 1.66 1.64 1.56 1.57 1.56 1.60 1.66 1.64 1.59 1.60 1.63 1.69 1.73 1.76 1.79 1.77 1.75 1.80 1.82 1.86 1.77 1.81 1.84 1.83 1.92 1.93 1.82 1.80 1.82 1.88 1.88 1.85 1.84 1.85 1.86 1.87 1.84 1.78 1.81 1.84 1.87 1.88 1.82 1.82 1.90 1.90 1.91 1.92 1.89 1.92 1.90 1.87 1.89 1.89 1.83 1.77 1.75 1.71 1.66 1.65 1.75 1.82 1.88 1.84 1.87 1.91 1.95 1.97 2.02 1.93 1.98 1.91 1.93 1.89 1.86 1.78 1.69 1.68 1.67 1.69 1.72 1.69 1.60
1.54 1.57 1.62 1.61 1.59 1.59 1.58 1.61 1.64 1.58 1.57 1.60 1.63 1.67 1.73 1.81 1.82 1.77 1.73 1.76 1.77 1.81 1.80 1.83 1.84 1.84 1.97 1.96 1.86 1.81 1.77 1.80 1.84 1.87 1.84 1.79 1.78 1.80 1.82 1.86 1.84 1.82 1.83 1.86 1.83 1.77 1.82 1.87 1.90 1.91 1.91 1.91 1.93 1.93 1.94 1.93 1.83 1.82 1.79 1.71 1.66 1.68 1.76 1.82 1.88 1.91 1.89 1.88 1.87 1.93 1.99 1.98 1.91 1.93 1.90 1.90 1.82 1.72 1.67 1.66 1.68 1.72 1.69 1.60 1.53
1.49 1.53 1.59 1.63 1.66 1.60 1.57 1.60 1.59 1.55 1.57 1.63 1.74 1.74 1.73 1.82 1.78 1.68 1.68 1.72 1.76 1.73 1.79 1.82 1.81 1.84 1.87 1.93 1.93 1.81 1.76 1.81 1.83 1.84 1.83 1.80 1.75 1.71 1.71 1.70 1.71 1.72 1.77 1.84 1.88 1.84 1.81 1.80 1.81 1.83 1.88 1.88 1.89 1.91 1.90 1.89 1.86 1.86 1.82 1.76 1.70 1.71 1.79 1.84 1.82 1.86 1.89 1.89 1.88 1.90 1.89 1.91 1.88 1.94 1.89 1.83 1.76 1.71 1.69 1.67 1.69 1.68 1.63 1.58 1.52
1.47 1.46 1.54 1.69 1.63 1.59 1.56 1.56 1.55 1.58 1.68 1.72 1.75 1.77 1.74 1.70 1.69 1.67 1.69 1.71 1.72 1.78 1.82 1.82 1.81 1.82 1.84 1.83 1.82 1.82 1.79 1.80 1.76 1.74 1.72 1.70 1.68 1.72 1.67 1.65 1.65 1.64 1.67 1.74 1.81 1.89 1.90 1.84 1.84 1.88 1.89 1.86 1.85 1.86 1.85 1.85 1.86 1.85 1.77 1.70 1.68 1.73 1.76 1.77 1.79 1.81 1.85 1.92 1.90 1.92 1.88 1.87 1.88 1.89 1.85 1.80 1.76 1.70 1.65 1.66 1.68 1.68 1.64 1.60 1.54
1.47 1.43 1.53 1.66 1.64 1.58 1.55 1.54 1.57 1.62 1.70 1.73 1.75 1.75 1.72 1.66 1.65 1.66 1.67 1.69 1.73 1.77 1.82 1.84 1.83 1.83 1.80 1.82 1.81 1.79 1.76 1.69 1.68 1.74 1.74 1.67 1.61 1.59 1.64 1.64 1.63 1.62 1.61 1.61 1.64 1.75 1.93 1.90 1.87 1.87 1.87 1.86 1.86 1.86 1.85 1.82 1.80 1.77 1.72 1.67 1.67 1.70 1.71 1.75 1.76 1.77 1.80 1.85 1.87 1.84 1.85 1.84 1.81 1.82 1.80 1.78 1.77 1.71 1.64 1.64 1.68 1.70 1.68 1.62 1.57
1.46 1.45 1.49 1.60 1.61 1.57 1.56 1.55 1.57 1.64 1.68 1.70 1.73 1.65 1.62 1.61 1.62 1.64 1.68 1.71 1.73 1.78 1.83 1.86 1.85 1.80 1.78 1.79 1.76 1.70 1.65 1.68 1.74 1.75 1.70 1.64 1.61 1.59 1.58 1.54 1.51 1.51 1.51 1.51 1.58 1.71 1.82 1.88 1.89 1.87 1.85 1.86 1.86 1.85 1.85 1.80 1.73 1.69 1.67 1.60 1.57 1.60 1.65 1.69 1.64 1.65 1.73 1.79 1.84 1.81 1.83 1.79 1.77 1.76 1.78 1.78 1.78 1.73 1.65 1.62 1.66 1.70 1.70 1.67 1.65
1.45 1.42 1.47 1.59 1.58 1.59 1.52 1.54 1.55 1.64 1.67 1.68 1.64 1.59 1.56 1.56 1.60 1.66 1.69 1.71 1.75 1.80 1.83 1.84 1.82 1.76 1.73 1.69 1.64 1.62 1.66 1.75 1.75 1.73 1.74 1.75 1.71 1.67 1.63 1.59 1.59 1.59 1.62 1.65 1.68 1.73 1.81 1.83 1.83 1.85 1.85 1.86 1.87 1.86 1.85 1.83 1.78 1.72 1.65 1.57 1.53 1.56 1.61 1.60 1.53 1.59 1.66 1.74 1.81 1.80 1.79 1.72 1.74 1.73 1.74 1.76 1.80 1.78 1.73 1.67 1.67 1.70 1.72 1.72 1.70
1.41 1.45 1.49 1.56 1.59 1.58 1.50 1.50 1.63 1.75 1.73 1.75 1.60 1.57 1.56 1.57 1.60 1.65 1.69 1.76 1.81 1.81 1.81 1.79 1.74 1.70 1.68 1.62 1.58 1.60 1.66 1.75 1.80 1.77 1.73 1.72 1.72 1.71 1.69 1.66 1.63 1.60 1.62 1.68 1.71 1.77 1.81 1.77 1.75 1.77 1.82 1.84 1.84 1.84 1.84 1.84 1.83 1.79 1.72 1.65 1.59 1.58 1.62 1.59 1.54 1.54 1.60 1.63 1.68 1.73 1.72 1.78 1.84 1.84 1.82 1.82 1.83 1.83 1.83 1.83 1.79 1.75 1.75 1.79 1.80
1.41 1.46 1.46 1.57 1.60 1.57 1.49 1.46 1.60 1.65 1.68 1.67 1.61 1.61 1.62 1.63 1.65 1.68 1.75 1.81 1.82 1.83 1.79 1.73 1.69 1.68 1.64 1.57 1.53 1.56 1.66 1.76 1.76 1.77 1.78 1.79 1.75 1.70 1.69 1.68 1.66 1.66 1.69 1.72 1.74 1.77 1.81 1.82 1.81 1.80 1.80 1.81 1.82 1.82 1.83 1.84 1.85 1.83 1.78 1.69 1.69 1.76 1.70 1.62 1.56 1.53 1.56 1.53 1.54 1.58 1.64 1.74 1.82 1.84 1.85 1.87 1.88 1.85 1.85 1.85 1.86 1.86 1.84 1.83 1.85
1.37 1.47 1.43 1.52 1.61 1.54 1.45 1.49 1.59 1.61 1.69 1.67 1.67 1.68 1.67 1.68 1.70 1.73 1.77 1.83 1.82 1.79 1.74 1.69 1.67 1.64 1.59 1.54 1.59 1.66 1.70 1.78 1.81 1.80 1.82 1.81 1.78 1.76 1.72 1.69 1.67 1.65 1.66 1.72 1.75 1.75 1.75 1.76 1.74 1.77 1.82 1.79 1.78 1.79 1.80 1.81 1.80 1.77 1.71 1.73 1.81 1.81 1.75 1.74 1.68 1.62 1.59 1.54 1.48 1.45 1.48 1.56 1.61 1.64 1.71 1.78 1.82 1.82 1.84 1.84 1.85 1.86 1.86 1.88 1.86
1.30 1.44 1.43 1.47 1.55 1.51 1.42 1.50 1.58 1.63 1.70 1.71 1.74 1.73 1.69 1.75 1.76 1.75 1.80 1.80 1.79 1.73 1.72 1.71 1.71 1.63 1.55 1.64 1.67 1.67 1.76 1.82 1.89 1.85 1.84 1.87 1.84 1.81 1.78 1.75 1.72 1.69 1.68 1.68 1.75 1.76 1.76 1.71 1.67 1.67 1.71 1.71 1.79 1.82 1.74 1.73 1.75 1.75 1.76 1.78 1.82 1.76 1.79 1.77 1.73 1.69 1.65 1.55 1.46 1.41 1.40 1.40 1.43 1.47 1.54 1.59 1.63 1.68 1.74 1.79 1.82 1.86 1.85 1.85 1.86
1.21 1.41 1.38 1.39 1.50 1.46 1.45 1.48 1.58 1.65 1.67 1.72 1.73 1.70 1.73 1.80 1.78 1.79 1.86 1.82 1.82 1.80 1.80 1.76 1.72 1.62 1.60 1.58 1.60 1.65 1.71 1.77 1.86 1.91 1.88 1.84 1.86 1.85 1.83 1.81 1.81 1.78 1.76 1.75 1.77 1.76 1.69 1.64 1.64 1.66 1.63 1.65 1.75 1.78 1.79 1.72 1.67 1.75 1.82 1.84 1.77 1.73 1.73 1.77 1.77 1.78 1.76 1.66 1.54 1.51 1.50 1.51 1.52 1.51 1.51 1.53 1.55 1.59 1.62 1.67 1.72 1.77 1.81 1.84 1.83
1.17 1.36 1.39 1.35 1.43 1.41 1.46 1.51 1.56 1.61 1.64 1.67 1.67 1.65 1.71 1.72 1.73 1.76 1.82 1.82 1.83 1.83 1.81 1.76 1.69 1.63 1.54 1.56 1.60 1.61 1.70 1.72 1.70 1.75 1.80 1.83 1.83 1.85 1.84 1.81 1.79 1.78 1.78 1.77 1.72 1.66 1.61 1.58 1.61 1.72 1.75 1.65 1.61 1.66 1.70 1.72 1.73 1.77 1.79 1.78 1.74 1.75 1.79 1.81 1.77 1.76 1.80 1.79 1.65 1.58 1.58 1.58 1.58 1.55 1.52 1.50 1.51 1.52 1.54 1.54 1.60 1.65 1.74 1.74 1.80
1.16 1.37 1.42 1.30 1.34 1.40 1.46 1.50 1.55 1.58 1.61 1.61 1.62 1.60 1.63 1.66 1.69 1.74 1.78 1.79 1.79 1.80 1.77 1.69 1.65 1.58 1.53 1.56 1.57 1.63 1.71 1.67 1.69 1.79 1.84 1.86 1.82 1.80 1.88 1.91 1.87 1.83 1.81 1.85 1.80 1.77 1.84 1.75 1.79 1.78 1.80 1.69 1.63 1.64 1.64 1.60 1.63 1.59 1.59 1.62 1.66 1.74 1.72 1.73 1.76 1.79 1.78 1.86 1.73 1.67 1.65 1.65 1.64 1.63 1.57 1.52 1.50 1.49 1.47 1.51 1.57 1.64 1.64 1.69 1.76
1.16 1.26 1.35 1.29 1.28 1.40 1.47 1.49 1.52 1.55 1.59 1.58 1.61 1.58 1.56 1.56 1.60 1.68 1.71 1.72 1.74 1.72 1.67 1.62 1.56 1.53 1.53 1.56 1.58 1.62 1.70 1.71 1.73 1.74 1.77 1.84 1.84 1.87 1.85 1.85 1.86 1.81 1.88 1.82 1.81 1.82 1.78 1.75 1.68 1.66 1.64 1.60 1.55 1.55 1.53 1.59 1.56 1.58 1.52 1.54 1.56 1.60 1.67 1.74 1.74 1.79 1.83 1.82 1.76 1.76 1.76 1.76 1.68 1.64 1.62 1.57 1.52 1.46 1.43 1.43 1.48 1.58 1.66 1.67 1.68
1.11 1.22 1.34 1.29 1.29 1.38 1.46 1.49 1.49 1.55 1.56 1.59 1.65 1.56 1.52 1.54 1.57 1.59 1.59 1.56 1.60 1.56 1.55 1.56 1.52 1.53 1.57 1.59 1.58 1.61 1.66 1.68 1.70 1.70 1.73 1.84 1.82 1.84 1.84 1.87 1.84 1.81 1.84 1.81 1.79 1.80 1.79 1.73 1.74 1.68 1.66 1.61 1.54 1.49 1.54 1.51 1.56 1.58 1.56 1.56 1.59 1.58 1.58 1.62 1.67 1.73 1.79 1.83 1.77 1.78 1.79 1.80 1.77 1.71 1.66 1.64 1.58 1.53 1.48 1.44 1.44 1.49 1.61 1.70 1.71
1.15 1.19 1.30 1.28 1.26 1.32 1.46 1.46 1.48 1.52 1.52 1.56 1.60 1.53 1.52 1.49 1.50 1.52 1.52 1.48 1.45 1.42 1.45 1.47 1.49 1.52 1.58 1.63 1.66 1.66 1.68 1.69 1.69 1.69 1.69 1.79 1.77 1.79 1.79 1.79 1.76 1.78 1.83 1.87 1.82 1.82 1.78 1.76 1.75 1.74 1.68 1.67 1.59 1.61 1.56 1.52 1.52 1.59 1.56 1.55 1.60 1.62 1.63 1.59 1.61 1.67 1.73 1.80 1.81 1.78 1.80 1.80 1.79 1.75 1.70 1.67 1.65 1.60 1.55 1.47 1.41 1.43 1.48 1.52 1.61
1.09 1.15 1.23 1.27 1.26 1.29 1.44 1.42 1.45 1.50 1.51 1.51 1.52 1.53 1.50 1.49 1.43 1.38 1.42 1.37 1.40 1.38 1.42 1.43 1.45 1.53 1.58 1.61 1.67 1.64 1.67 1.68 1.68 1.68 1.68 1.72 1.73 1.76 1.75 1.75 1.78 1.80 1.86 1.85 1.88 1.83 1.84 1.81 1.75 1.70 1.71 1.67 1.63 1.59 1.57 1.56 1.62 1.54 1.51 1.50 1.60 1.57 1.59 1.58 1.56 1.60 1.68 1.71 1.86 1.76 1.76 1.79 1.77 1.77 1.73 1.69 1.67 1.67 1.63 1.55 1.46 1.43 1.44 1.47 1.50
1.16 1.17 1.17 1.22 1.26 1.29 1.30 1.35 1.40 1.45 1.47 1.46 1.48 1.49 1.45 1.44 1.41 1.35 1.41 1.30 1.42 1.42 1.41 1.45 1.54 1.57 1.55 1.61 1.67 1.71 1.72 1.77 1.79 1.78 1.76 1.73 1.76 1.74 1.77 1.80 1.82 1.86 1.90 1.86 1.89 1.90 1.84 1.82 1.76 1.74 1.69 1.68 1.64 1.56 1.64 1.55 1.57 1.52 1.48 1.46 1.53 1.60 1.54 1.57 1.55 1.56 1.58 1.65 1.75 1.78 1.75 1.74 1.76 1.77 1.77 1.73 1.72 1.72 1.67 1.66 1.61 1.55 1.47 1.46 1.48
1.20 1.15 1.16 1.20 1.24 1.25 1.26 1.33 1.40 1.42 1.42 1.38 1.42 1.42 1.42 1.43 1.41 1.43 1.39 1.29 1.44 1.44 1.39 1.49 1.56 1.62 1.60 1.64 1.70 1.77 1.84 1.88 1.87 1.86 1.85 1.82 1.82 1.85 1.87 1.89 1.90 1.92 1.94 1.91 1.91 1.93 1.91 1.86 1.84 1.77 1.72 1.71 1.69 1.62 1.64 1.56 1.54 1.54 1.47 1.47 1.47 1.56 1.55 1.58 1.58 1.57 1.58 1.58 1.66 1.81 1.75 1.74 1.76 1.75 1.75 1.74 1.73 1.77 1.74 1.68 1.67 1.63 1.60 1.55 1.51
1.17 1.15 1.17 1.19 1.21 1.20 1.22 1.31 1.37 1.37 1.39 1.37 1.37 1.34 1.34 1.41 1.42 1.46 1.39 1.39 1.43 1.38 1.41 1.52 1.56 1.62 1.66 1.68 1.75 1.80 1.89 1.89 1.88 1.87 1.86 1.84 1.86 1.89 1.89 1.91 1.91 1.94 1.96 1.95 1.92 1.92 1.92 1.92 1.88 1.86 1.82 1.76 1.68 1.59 1.60 1.55 1.55 1.52 1.50 1.39 1.44 1.51 1.54 1.57 1.63 1.58 1.61 1.56 1.60 1.70 1.84 1.78 1.72 1.71 1.69 1.70 1.71 1.75 1.74 1.70 1.68 1.66 1.61 1.61 1.58
1.22 1.21 1.21 1.15 1.12 1.16 1.20 1.27 1.34 1.30 1.33 1.35 1.29 1.33 1.32 1.35 1.35 1.41 1.45 1.46 1.35 1.42 1.45 1.51 1.57 1.64 1.69 1.71 1.78 1.83 1.88 1.87 1.88 1.90 1.87 1.88 1.88 1.91 1.92 1.91 1.94 1.97 1.96 1.95 1.91 1.90 1.87 1.85 1.87 1.85 1.83 1.75 1.68 1.59 1.56 1.59 1.55 1.50 1.53 1.42 1.49 1.47 1.52 1.57 1.58 1.61 1.63 1.60 1.56 1.59 1.75 1.80 1.76 1.62 1.65 1.72 1.73 1.71 1.70 1.69 1.66 1.66 1.63 1.60 1.59
1.21 1.23 1.23 1.11 1.14 1.18 1.23 1.24 1.29 1.24 1.28 1.35 1.29 1.31 1.30 1.31 1.34 1.38 1.45 1.41 1.43 1.44 1.54 1.58 1.60 1.64 1.67 1.71 1.79 1.83 1.87 1.90 1.89 1.88 1.93 1.89 1.85 1.84 1.88 1.88 1.93 1.92 1.92 1.94 1.88 1.87 1.83 1.81 1.77 1.88 1.71 1.73 1.63 1.63 1.56 1.51 1.48 1.50 1.43 1.36 1.46 1.48 1.53 1.56 1.60 1.54 1.58 1.61 1.54 1.51 1.57 1.72 1.73 1.72 1.70 1.65 1.67 1.68 1.69 1.70 1.66 1.65 1.61 1.60 1.58
1.24 1.21 1.16 1.13 1.14 1.15 1.20 1.18 1.25 1.23 1.22 1.32 1.28 1.31 1.31 1.31 1.30 1.33 1.36 1.35 1.42 1.50 1.56 1.60 1.61 1.65 1.69 1.75 1.81 1.87 1.88 1.91 1.90 1.89 1.86 1.89 1.84 1.82 1.82 1.86 1.89 1.91 1.92 1.86 1.92 1.81 1.80 1.80 1.81 1.76 1.68 1.64 1.64 1.61 1.59 1.47 1.44 1.38 1.31 1.37 1.39 1.43 1.54 1.53 1.56 1.53 1.53 1.52 1.54 1.49 1.52 1.59 1.70 1.71 1.71 1.85 1.60 1.62 1.63 1.65 1.62 1.64 1.62 1.60 1.67
1.21 1.22 1.22 1.17 1.14 1.14 1.14 1.15 1.19 1.22 1.19 1.28 1.29 1.31 1.30 1.34 1.33 1.32 1.31 1.28 1.37 1.45 1.53 1.57 1.60 1.66 1.69 1.76 1.81 1.86 1.88 1.90 1.90 1.87 1.84 1.86 1.86 1.81 1.82 1.87 1.81 1.90 1.89 1.86 1.83 1.78 1.72 1.78 1.70 1.76 1.66 1.60 1.61 1.60 1.61 1.46 1.40 1.37 1.36 1.33 1.34 1.36 1.49 1.56 1.59 1.64 1.56 1.59 1.56 1.51 1.54 1.53 1.59 1.67 1.63 1.71 1.83 1.72 1.58 1.59 1.61 1.62 1.60 1.56 1.57
1.25 1.22 1.21 1.16 1.13 1.12 1.10 1.13 1.13 1.19 1.20 1.23 1.28 1.30 1.32 1.31 1.33 1.27 1.30 1.23 1.31 1.38 1.47 1.53 1.57 1.62 1.68 1.76 1.81 1.82 1.86 1.88 1.88 1.86 1.83 1.82 1.81 1.80 1.81 1.80 1.83 1.82 1.82 1.84 1.83 1.77 1.84 1.78 1.68 1.70 1.67 1.62 1.60 1.53 1.55 1.49 1.39 1.38 1.35 1.31 1.27 1.33 1.45 1.55 1.55 1.54 1.50 1.48 1.55 1.58 1.54 1.47 1.46 1.40 1.55 1.64 1.62 1.70 1.51 1.53 1.55 1.60 1.58 1.56 1.53
1.29 1.24 1.22 1.16 1.10 1.12 1.06 1.12 1.16 1.20 1.24 1.24 1.25 1.27 1.30 1.31 1.29 1.31 1.28 1.25 1.28 1.35 1.40 1.46 1.50 1.57 1.65 1.76 1.85 1.83 1.84 1.85 1.84 1.85 1.83 1.84 1.84 1.81 1.81 1.80 1.80 1.77 1.78 1.76 1.83 1.80 1.74 1.75 1.67 1.69 1.70 1.69 1.63 1.56 1.50 1.47 1.41 1.37 1.34 1.34 1.26 1.31 1.42 1.46 1.44 1.49 1.46 1.40 1.38 1.40 1.46 1.50 1.58 1.58 1.62 1.62 1.61 1.58 1.65 1.54 1.48 1.50 1.53 1.54 1.54
1.29 1.25 1.24 1.23 1.20 1.17 1.12 1.11 1.17 1.19 1.24 1.26 1.25 1.26 1.28 1.27 1.28 1.27 1.25 1.24 1.27 1.33 1.39 1.40 1.45 1.52 1.60 1.69 1.79 1.83 1.84 1.84 1.85 1.83 1.81 1.79 1.78 1.80 1.79 1.82 1.81 1.77 1.73 1.74 1.73 1.76 1.79 1.66 1.66 1.62 1.66 1.68 1.64 1.60 1.55 1.46 1.37 1.35 1.32 1.32 1.25 1.25 1.39 1.43 1.48 1.46 1.47 1.45 1.39 1.39 1.46 1.45 1.44 1.46 1.54 1.58 1.59 1.54 1.55 1.63 1.66 1.68 1.69 1.55 1.56
1.32 1.28 1.26 1.23 1.19 1.19 1.15 1.12 1.16 1.19 1.25 1.24 1.23 1.17 1.18 1.14 1.10 1.16 1.17 1.17 1.21 1.23 1.30 1.36 1.39 1.47 1.57 1.65 1.71 1.77 1.84 1.82 1.80 1.80 1.77 1.76 1.78 1.78 1.79 1.82 1.81 1.78 1.74 1.72 1.68 1.71 1.70 1.69 1.59 1.58 1.54 1.52 1.46 1.42 1.47 1.45 1.40 1.30 1.24 1.27 1.28 1.25 1.32 1.37 1.40 1.41 1.42 1.46 1.48 1.49 1.45 1.45 1.43 1.44 1.49 1.52 1.54 1.58 1.53 1.56 1.59 1.61 1.65 1.64 1.56
1.34 1.30 1.26 1.23 1.19 1.16 1.13 1.06 1.12 1.17 1.16 1.12 1.10 1.05 1.02 1.05 1.06 1.05 1.04 1.10 1.12 1.19 1.21 1.23 1.30 1.37 1.54 1.64 1.69 1.71 1.75 1.79 1.79 1.75 1.72 1.75 1.73 1.78 1.78 1.78 1.82 1.76 1.74 1.72 1.71 1.75 1.70 1.72 1.64 1.60 1.56 1.48 1.36 1.33 1.39 1.44 1.29 1.25 1.27 1.26 1.26 1.29 1.29 1.37 1.36 1.40 1.41 1.40 1.42 1.41 1.32 1.32 1.29 1.31 1.45 1.47 1.44 1.51 1.51 1.48 1.51 1.52 1.53 1.63 1.60
1.30 1.32 1.26 1.24 1.20 1.18 1.12 1.10 1.11 1.10 1.09 1.07 1.06 1.03 1.05 1.02 0.98 0.99 1.01 1.06 1.09 1.09 1.10 1.16 1.20 1.28 1.44 1.61 1.70 1.72 1.73 1.72 1.74 1.73 1.71 1.71 1.69 1.70 1.70 1.74 1.75 1.76 1.75 1.77 1.77 1.69 1.69 1.68 1.68 1.60 1.56 1.56 1.33 1.30 1.30 1.35 1.19 1.20 1.14 1.09 1.17 1.21 1.26 1.30 1.33 1.35 1.39 1.38 1.37 1.33 1.27 1.24 1.24 1.25 1.35 1.39 1.35 1.26 1.35 1.39 1.38 1.39 1.44 1.45 1.51
1.31 1.30 1.32 1.29 1.24 1.18 1.17 1.14 1.10 1.07 1.06 1.06 1.04 1.00 1.07 1.09 1.04 1.01 1.00 1.04 1.14 1.16 1.13 1.16 1.19 1.22 1.34 1.49 1.66 1.71 1.72 1.71 1.73 1.71 1.67 1.67 1.70 1.72 1.69 1.70 1.72 1.74 1.70 1.70 1.70 1.69 1.71 1.68 1.65 1.59 1.53 1.53 1.40 1.30 1.31 1.45 1.21 1.22 1.18 1.07 0.98 0.99 1.05 1.19 1.29 1.32 1.31 1.31 1.28 1.31 1.27 1.25 1.16 1.20 1.26 1.37 1.38 1.39 1.34 1.33 1.30 1.30 1.32 1.35 1.41
1.31 1.30 1.30 1.28 1.28 1.22 1.19 1.18 1.14 1.11 1.08 1.09 1.05 1.05 1.08 1.12 1.10 1.09 1.06 1.05 1.11 1.16 1.16 1.18 1.20 1.18 1.23 1.39 1.53 1.67 1.72 1.71 1.73 1.74 1.69 1.69 1.68 1.70 1.71 1.69 1.68 1.72 1.68 1.69 1.65 1.63 1.67 1.64 1.64 1.62 1.55 1.50 1.42 1.24 1.33 1.31 1.33 1.18 1.00 1.09 0.99 0.93 0.88 0.99 1.15 1.23 1.25 1.25 1.26 1.32 1.29 1.28 1.31 1.33 1.35 1.37 1.40 1.39 1.37 1.37 1.29 1.30 1.28 1.28 1.29
1.27 1.27 1.28 1.29 1.29 1.26 1.24 1.22 1.20 1.14 1.11 1.11 1.09 1.11 1.11 1.09 1.07 1.09 1.10 1.04 1.12 1.11 1.05 1.04 1.12 1.16 1.16 1.26 1.41 1.58 1.69 1.69 1.73 1.74 1.73 1.69 1.70 1.73 1.71 1.69 1.68 1.70 1.70 1.65 1.62 1.64 1.64 1.67 1.64 1.59 1.56 1.55 1.40 1.27 1.25 1.31 1.31 1.40 1.21 0.96 0.81 0.86 0.96 1.00 0.99 1.05 1.22 1.23 1.31 1.35 1.31 1.24 1.30 1.28 1.30 1.29 1.34 1.37 1.41 1.37 1.33 1.30 1.30 1.30 1.27
1.25 1.29 1.32 1.33 1.33 1.33 1.33 1.30 1.27 1.21 1.16 1.15 1.14 1.12 1.09 1.00 0.95 0.90 0.86 0.87 0.85 0.89 0.88 0.91 0.99 1.04 1.06 1.18 1.35 1.52 1.64 1.67 1.71 1.74 1.74 1.72 1.69 1.71 1.70 1.68 1.65 1.66 1.65 1.67 1.68 1.63 1.60 1.63 1.67 1.65 1.57 1.54 1.53 1.33 1.21 1.27 1.29 1.28 1.30 1.29 1.28 1.13 1.01 1.03 1.00 0.98 1.09 1.19 1.20 1.16 1.21 1.25 1.23 1.21 1.29 1.32 1.32 1.35 1.34 1.38 1.38 1.37 1.36 1.31 1.32
1.26 1.35 1.35 1.34 1.34 1.36 1.37 1.36 1.31 1.27 1.27 1.24 1.20 1.14 1.10 1.04 0.95 0.88 0.86 0.85 0.81 0.86 0.94 0.96 1.00 1.08 1.12 1.14 1.31 1.51 1.59 1.63 1.66 1.70 1.70 1.71 1.69 1.68 1.67 1.65 1.66 1.63 1.63 1.62 1.58 1.62 1.65 1.63 1.68 1.63 1.62 1.57 1.46 1.36 1.27 1.20 1.24 1.24 1.22 1.25 1.24 1.24 1.17 1.07 0.99 0.96 1.02 1.06 1.13 1.14 1.16 1.18 1.20 1.22 1.26 1.26 1.30 1.31 1.31 1.35 1.37 1.36 1.38 1.35 1.34
1.32 1.35 1.34 1.35 1.33 1.34 1.37 1.37 1.37 1.35 1.34 1.32 1.26 1.18 1.11 1.05 0.96 0.93 0.93 0.92 0.87 0.88 0.95 0.97 1.04 1.14 1.14 1.12 1.33 1.53 1.59 1.59 1.61 1.65 1.66 1.67 1.65 1.65 1.66 1.64 1.61 1.62 1.63 1.58 1.56 1.65 1.66 1.67 1.65 1.67 1.65 1.59 1.50 1.43 1.27 1.25 1.17 1.14 1.23 1.18 1.19 1.20 1.18 1.19 1.14 1.05 0.96 0.90 0.97 1.05 1.11 1.11 1.14 1.19 1.19 1.20 1.22 1.27 1.28 1.29 1.32 1.34 1.37 1.38 1.35
1.35 1.31 1.31 1.34 1.37 1.39 1.40 1.41 1.39 1.38 1.38 1.35 1.28 1.26 1.25 1.14 1.03 1.00 0.96 0.98 0.98 0.98 1.06 1.06 1.04 1.12 1.13 1.14 1.29 1.48 1.56 1.58 1.56 1.59 1.62 1.65 1.65 1.64 1.66 1.63 1.58 1.61 1.61 1.58 1.55 1.59 1.63 1.63 1.61 1.60 1.58 1.57 1.56 1.47 1.37 1.27 1.22 1.23 1.12 1.13 1.17 1.18 1.18 1.17 1.12 1.06 0.98 0.91 0.89 0.92 0.95 1.07 1.14 1.15 1.14 1.15 1.18 1.20 1.25 1.28 1.26 1.25 1.29 1.36 1.38
1.37 1.38 1.38 1.39 1.39 1.40 1.38 1.37 1.37 1.39 1.39 1.37 1.34 1.34 1.33 1.23 1.15 1.10 1.03 1.02 1.05 1.07 1.12 1.12 1.08 1.14 1.12 1.14 1.20 1.35 1.48 1.54 1.54 1.53 1.58 1.62 1.64 1.66 1.67 1.65 1.61 1.61 1.60 1.58 1.56 1.54 1.57 1.60 1.63 1.66 1.62 1.57 1.61 1.53 1.44 1.37 1.28 1.28 1.23 1.19 1.08 1.10 1.11 1.08 1.09 1.06 1.03 0.98 0.89 0.94 0.97 0.95 0.94 1.08 1.12 1.17 1.18 1.17 1.21 1.25 1.26 1.30 1.32 1.33 1.37
1.40 1.40 1.37 1.36 1.37 1.36 1.36 1.34 1.36 1.40 1.43 1.40 1.39 1.37 1.35 1.29 1.23 1.17 1.12 1.08 1.10 1.10 1.09 1.13 1.14 1.14 1.11 1.12 1.15 1.23 1.37 1.47 1.52 1.53 1.51 1.59 1.62 1.65 1.67 1.67 1.67 1.66 1.62 1.60 1.54 1.53 1.52 1.53 1.60 1.62 1.63 1.62 1.60 1.58 1.49 1.44 1.38 1.30 1.24 1.21 1.15 1.14 1.05 1.03 1.09 1.11 1.07 1.00 0.99 1.03 1.06 1.07 1.06 1.00 1.08 1.16 1.13 1.14 1.17 1.18 1.18 1.23 1.27 1.29 1.34
Wind_Speed
14 15 15 15 15 15 15 15 14 14 14 14 13 13 13 13 14 14 14 14 14 13 13 13 12 12 11 11 11 11 11 11 10 10 10 9 9 9 8 8 8 8 8 8 7 7 6 6 5 5 5 5 5 5 5 5 5 5 5 5 4 4 4 4 4 4 4 3 4 4 4 5 5 5 6 6 6 6 6 6 6 7 8 8 8
15 15 15 15 15 15 15 14 14 14 14 13 13 13 13 13 14 14 14 14 13 13 13 12 12 12 11 11 11 11 11 10 10 10 9 9 9 8 8 8 8 8 8 8 7 7 6 6 6 6 6 6 6 5 5 6 5 5 5 5 5 5 5 5 5 5 4 4 4 4 5 5 5 5 6 7 6 6 6 6 6 7 8 8 8
15 15 15 15 15 15 14 14 14 14 13 13 13 13 13 14 14 14 14 13 13 13 13 12 12 12 12 11 11 11 11 10 10 9 9 9 8 8 8 8 8 8 8 8 8 7 7 7 7 7 6 6 6 6 6 6 6 6 6 6 6 5 5 5 5 5 5 5 5 5 6 6 5 6 7 7 6 6 6 6 7 8 8 8 8
15 15 15 15 15 15 14 14 14 14 14 13 13 13 14 14 14 13 13 13 13 13 13 13 12 12 12 12 11 11 11 10 10 9 9 8 8 8 8 9 9 9 8 8 8 8 8 8 8 7 7 7 7 7 7 7 7 7 7 7 6 6 6 6 6 6 5 5 5 6 6 7 7 7 7 7 7 7 7 7 8 8 9 9 9
15 15 16 15 15 14 14 14 14 14 14 13 13 14 14 14 14 13 13 13 13 13 13 13 13 12 12 12 11 11 11 10 9 9 9 9 9 9 9 9 9 9 9 8 8 8 8 8 8 8 8 8 8 8 8 8 7 8 7 7 7 7 7 7 6 6 6 6 5 6 7 7 8 8 8 8 8 8 8 8 8 9 9 9 9
15 15 15 15 15 14 14 14 14 13 13 13 14 14 14 14 14 14 14 14 14 14 13 13 13 12 12 11 11 11 10 10 9 9 9 10 10 10 9 9 9 9 9 9 9 9 9 9 9 9 9 9 8 9 9 8 8 8 8 8 8 8 8 7 6 6 6 6 5 6 7 8 9 9 8 8 9 9 9 9 9 9 9 9 9
15 15 15 15 14 14 14 13 13 13 14 14 14 14 14 14 14 14 14 14 14 14 13 13 13 12 12 11 11 11 10 10 10 10 10 10 10 10 10 10 10 9 9 9 9 10 10 10 10 9 9 9 9 9 9 9 9 9 9 9 9 8 8 8 7 6 6 7 6 6 7 9 10 9 9 9 10 10 9 9 9 9 9 9 9
15 15 15 14 14 14 14 14 14 14 14 14 15 15 15 14 14 14 14 14 14 13 13 13 12 12 12 12 11 11 10 10 10 10 10 10 10 10 10 10 10 10 10 10 10 10 10 10 10 10 9 9 9 9 10 10 10 10 9 9 9 9 8 8 8 7 7 7 7 7 8 10 10 11 10 10 10 10 10 10 9 9 9 9 9
15 15 15 14 14 14 14 14 14 14 15 15 15 15 15 14 14 14 14 14 13 13 13 13 12 12 12 12 11 11 10 10 10 10 10 10 10 10 10 10 10 10 10 10 11 11 11 11 10 10 9 9 9 9 10 11 10 10 10 10 10 9 9 9 8 8 8 9 9 9 9 10 11 12 12 12 12 11 11 10 10 10 10 9 9
15 15 14 14 14 14 14 14 14 15 15 15 15 15 15 14 14 14 14 14 13 13 13 13 12 12 12 12 11 11 11 10 10 10 10 10 11 10 11 11 11 10 10 11 11 11 11 11 10 10 10 10 10 10 10 11 11 11 10 10 10 10 10 9 9 9 10 11 10 10 11 11 11 12 13 13 12 12 11 11 11 11 11 11 10
15 15 14 14 15 14 14 14 14 15 15 15 15 14 15 14 14 14 14 13 13 13 13 12 12 12 12 12 11 11 11 11 11 10 10 10 11 11 11 11 11 11 10 11 11 11 11 11 11 10 10 10 10 10 10 11 11 11 11 11 11 10 10 10 9 10 12 12 11 12 12 12 13 13 13 13 13 13 12 12 12 12 12 12 11
15 14 14 15 15 15 14 14 15 15 15 15 15 14 14 14 14 14 13 13 13 13 12 12 12 12 12 12 11 11 11 11 11 11 11 11 11 11 11 11 11 11 11 11 11 11 11 11 11 11 11 11 11 11 11 11 11 11 11 11 11 11 10 10 10 11 13 13 12 12 12 13 14 14 13 13 13 13 13 13 13 12 12 12 11
15 14 15 15 15 14 14 15 15 15 15 15 15 14 14 14 14 14 13 13 13 13 12 12 12 12 12 12 12 12 12 12 12 12 12 11 11 11 11 11 11 11 11 11 11 11 11 11 11 11 11 11 11 11 12 12 12 12 11 11 11 11 11 11 11 11 12 13 13 12 12 13 13 14 13 13 13 13 13 13 13 13 12 12 11
15 15 15 15 15 15 14 15 14 15 15 15 15 14 14 14 14 13 13 13 13 13 13 12 12 12 12 12 12 12 12 12 12 12 12 12 12 11 11 11 11 11 11 11 11 11 11 11 11 11 12 12 12 12 12 12 12 12 11 11 11 11 11 11 11 11 12 12 13 13 13 13 13 13 13 13 13 13 13 13 13 12 12 11 11
15 15 15 15 15 15 15 14 14 15 14 14 14 14 14 14 14 13 13 13 13 13 13 12 12 12 12 12 12 12 12 12 12 12 12 12 12 12 12 12 12 12 11 11 11 11 12 12 12 12 12 12 13 13 13 12 12 12 11 11 11 11 11 11 11 11 11 12 12 13 13 13 13 13 13 13 13 12 12 12 12 11 11 10 10
15 15 15 15 15 15 15 14 14 14 14 14 15 14 14 14 14 13 13 13 13 13 13 12 12 12 12 12 12 12 12 12 12 12 12 12 12 12 12 12 12 12 12 11 11 12 12 12 12 12 12 12 13 13 13 12 12 12 11 11 11 11 10 10 10 11 11 11 12 12 13 13 12 12 12 12 12 12 11 11 11 10 10 10 9
15 15 15 15 15 15 14 14 14 15 14 15 15 14 14 14 14 13 13 13 13 13 12 12 12 12 12 12 12 12 12 12 12 12 12 12 12 12 12 12 12 12 12 12 12 12 12 12 12 12 12 12 13 13 13 13 12 12 11 11 11 10 10 10 10 10 11 11 11 11 12 12 12 12 12 11 11 11 11 10 10 9 9 9 9
15 15 15 15 15 14 14 14 14 14 14 15 15 14 14 14 14 14 13 13 13 12 12 12 12 12 12 12 12 12 12 12 13 12 12 12 12 12 12 12 12 13 13 13 12 12 12 12 13 13 13 13 13 13 12 12 12 12 12 11 11 10 10 9 10 10 10 11 11 11 11 11 11 11 11 10 10 10 10 9 9 8 8 8 8
15 15 15 15 14 14 14 14 14 14 14 14 14 14 14 14 14 13 13 13 12 12 12 12 12 12 12 12 12 12 12 12 13 12 12 12 12 12 12 12 12 12 12 12 12 12 12 13 13 13 13 13 13 12 12 12 12 12 12 12 11 10 10 10 10 10 10 10 11 11 11 11 10 10 10 9 9 9 9 8 8 7 7 7 7
15 15 15 15 14 14 14 14 14 14 14 14 14 14 14 14 13 13 13 12 12 12 12 12 12 12 12 12 12 12 12 12 12 12 12 12 12 12 12 12 12 12 12 12 12 12 12 12 13 13 13 13 13 12 12 12 11 11 11 11 11 10 10 10 10 10 10 10 10 10 10 10 9 9 9 8 8 8 8 7 7 7 7 7 7
15 15 15 15 15 14 14 14 14 14 14 14 14 14 14 13 13 13 13 12 12 12 12 12 12 12 12 12 12 12 12 12 11 12 12 12 12 12 12 12 12 12 12 12 12 12 12 12 12 13 13 13 13 13 12 12 11 11 11 10 10 10 10 10 10 10 10 10 10 10 10 9 9 9 8 8 8 7 7 7 7 7 7 7 7
15 16 15 15 15 14 15 14 14 14 14 14 14 14 14 13 13 13 12 12 12 12 12 12 12 12 12 11 11 11 11 11 11 11 11 11 11 12 12 12 12 12 12 12 12 12 12 12 12 12 13 13 12 12 12 11 11 11 10 10 9 10 10 10 10 10 10 10 11 11 11 10 9 9 9 8 8 8 7 7 7 7 7 7 7
15 16 16 15 15 15 15 14 14 14 14 14 14 14 14 13 13 13 13 12 12 12 12 12 11 11 11 11 11 11 11 11 10 10 10 10 11 11 11 11 11 11 11 11 11 12 12 11 11 12 12 12 12 11 11 11 11 10 10 9 9 10 10 10 10 10 10 11 11 11 11 10 10 10 9 9 8 8 7 7 7 7 7 7 7
15 15 16 16 15 15 15 14 14 14 15 14 14 14 13 13 13 13 12 12 12 12 12 11 11 11 11 10 10 10 10 10 10 10 10 10 10 10 10 10 10 10 10 10 10 11 11 11 11 11 11 11 11 11 11 11 10 10 10 9 9 9 9 10 10 10 10 10 10 10 10 10 10 9 9 9 8 8 8 7 7 7 7 7 7
15 15 16 16 16 15 15 15 15 15 15 14 14 14 13 13 13 13 12 12 12 12 12 11 11 10 10 10 10 10 10 9 9 9 9 9 9 9 9 9 9 9 9 9 9 9 9 10 10 10 10 10 10 10 10 10 11 10 10 10 9 9 9 9 10 10 10 10 10 9 9 9 9 9 9 9 8 8 8 7 7 7 7 7 7
15 15 16 16 16 16 15 15 15 15 15 14 14 14 14 13 13 13 12 12 12 12 11 11 11 10 10 10 10 9 9 9 8 8 8 8 8 8 8 8 8 8 8 8 8 8 8 8 8 8 9 9 10 10 10 10 10 10 10 10 10 9 9 9 9 9 9 9 9 9 9 9 9 9 9 9 9 8 8 8 8 7 7 7 7
15 16 16 16 16 16 16 15 15 15 15 15 14 14 14 13 13 13 13 13 12 12 11 11 11 10 10 10 9 9 8 8 8 7 7 7 7 7 7 7 7 7 7 7 7 7 7 7 7 8 8 8 9 9 10 10 10 10 10 10 10 9 9 9 9 9 9 9 9 9 9 9 9 9 9 9 9 9 9 9 8 8 8 8 8
16 16 16 16 17 16 16 16 15 15 15 15 14 14 14 13 14 14 13 13 12 12 11 11 11 11 10 9 9 8 8 8 7 7 7 7 7 7 7 6 6 6 6 6 6 7 7 7 7 7 7 8 8 9 9 9 9 9 9 9 9 9 9 9 9 9 8 8 9 9 9 9 9 9 9 9 9 9 9 9 9 9 9 9 9
17 17 16 16 17 17 16 16 16 16 15 15 15 14 14 14 14 14 13 13 12 12 12 12 11 10 10 9 8 8 8 8 8 7 7 7 7 7 7 6 6 6 6 6 6 6 6 6 6 6 7 7 7 8 8 8 8 9 9 9 9 9 8 8 9 9 8 8 8 8 8 8 8 8 8 9 9 9 9 9 9 10 10 9 9
17 17 17 17 17 17 17 16 16 16 16 15 15 15 15 14 14 14 13 13 12 12 12 11 10 10 9 9 8 8 8 8 8 8 8 8 7 7 7 7 7 7 7 6 6 6 6 6 6 6 6 6 7 7 7 7 7 8 8 8 8 8 8 8 8 8 8 8 8 8 8 8 8 8 8 8 9 9 9 9 9 9 9 9 9
18 18 17 17 17 17 17 17 17 17 17 16 15 15 15 15 14 14 13 13 12 12 11 10 10 9 9 9 8 8 8 8 8 8 8 8 7 7 7 7 7 7 7 7 6 6 6 6 6 6 6 6 6 6 7 7 7 7 7 8 8 8 8 8 8 8 8 8 8 8 8 8 8 8 8 8 8 8 8 8 8 9 9 9 9
18 19 18 17 18 18 18 17 17 17 17 16 16 16 15 15 14 14 13 13 12 12 11 10 10 9 9 9 9 8 8 8 8 8 8 8 8 8 8 8 8 7 7 7 7 6 6 6 6 6 6 6 6 6 6 6 6 6 7 7 7 8 8 8 8 8 8 8 8 8 8 8 8 8 8 8 8 8 8 7 7 7 8 8 7
19 19 18 18 18 18 18 18 18 18 17 17 16 16 15 15 14 14 13 13 13 12 11 10 10 10 10 10 9 9 8 8 8 8 8 8 8 8 8 8 8 8 8 8 7 7 7 7 7 7 7 7 6 6 6 6 6 6 6 7 7 8 8 8 8 8 8 8 8 8 8 8 8 8 8 8 7 7 7 7 7 6 6 6 6
19 19 19 19 19 18 18 18 18 18 18 17 17 16 15 15 14 13 13 13 13 12 11 11 11 10 10 10 9 9 8 8 8 8 8 8 8 8 8 8 8 8 8 8 7 7 7 7 7 7 7 7 7 7 7 6 6 6 6 7 7 7 8 8 8 8 8 7 7 7 7 7 8 7 7 7 7 6 6 6 6 6 6 5 5
20 20 20 20 19 19 19 19 19 19 18 18 17 16 16 15 14 13 13 13 12 12 11 11 11 11 10 10 9 9 8 9 9 9 9 9 9 8 8 9 9 9 8 8 8 8 7 7 7 7 7 7 7 7 7 7 7 7 7 7 7 8 8 7 8 8 7 7 7 7 7 7 7 7 6 6 6 6 5 5 5 5 4 4 4
21 21 21 21 20 20 20 20 20 19 19 18 17 17 16 15 14 13 13 13 13 12 12 12 11 11 11 10 9 9 9 9 9 9 9 9 9 9 9 9 9 9 9 9 8 8 8 8 8 8 8 7 7 7 7 7 7 7 7 7 7 8 8 7 8 8 7 7 7 7 7 7 6 6 6 5 5 5 5 4 4 4 3 3 3
21 22 22 22 21 20 20 20 20 20 19 19 18 17 16 15 14 14 13 13 13 12 12 12 12 11 11 10 9 9 9 9 9 9 9 9 9 9 8 9 9 9 9 9 8 8 8 8 8 8 8 7 7 7 7 7 7 7 7 7 7 7 7 8 8 8 7 7 7 7 7 6 6 6 5 5 5 4 4 4 3 3 2 2 2
22 23 23 23 22 21 21 20 21 20 19 19 19 18 17 16 15 14 13 13 13 13 12 12 12 11 10 10 10 9 9 9 9 9 9 8 8 8 8 8 9 9 9 8 8 8 8 8 8 8 8 7 7 7 7 7 7 7 7 6 7 7 7 8 8 8 7 7 7 6 6 6 5 5 5 4 4 4 3 3 3 2 2 1 2
22 23 23 23 22 21 21 21 21 21 20 19 19 18 17 16 15 15 14 14 14 13 13 12 12 11 11 10 10 10 9 9 9 9 8 8 8 8 8 8 8 8 8 8 8 8 8 8 8 7 7 7 7 7 7 7 7 7 7 7 7 7 7 8 8 7 7 6 6 6 5 5 4 4 4 4 3 3 3 3 2 2 1 1 2
23 24 24 24 23 22 21 21 21 21 21 20 19 19 18 17 16 15 15 14 14 14 13 13 12 11 11 11 10 10 10 9 9 8 8 8 8 8 8 8 8 8 8 8 8 8 8 8 7 7 7 7 7 7 7 8 7 7 7 7 7 7 7 7 7 7 6 6 6 5 4 4 4 3 3 3 3 3 3 3 2 2 2 1 1
24 25 25 25 24 23 22 22 22 22 21 20 20 19 18 18 17 16 16 15 14 14 13 13 12 12 11 11 11 10 10 9 9 8 8 8 7 7 8 8 8 8 8 8 8 8 8 8 7 7 7 7 7 7 8 8 7 7 7 7 7 7 7 7 6 6 5 5 5 4 4 4 4 3 3 3 3 3 3 2 2 2 2 2 2
25 26 26 26 25 24 23 23 22 22 22 21 20 20 19 18 17 17 16 15 15 15 14 13 13 12 12 11 11 10 10 9 9 8 7 7 7 7 7 7 7 7 7 7 8 8 7 7 7 7 7 7 7 7 7 7 7 7 7 7 7 7 7 6 6 5 5 5 4 4 4 4 4 4 3 3 3 3 3 3 3 3 3 2 2
26 26 27 26 26 25 24 23 23 22 22 22 21 20 20 19 18 18 17 16 15 15 14 14 13 13 12 12 11 10 10 9 9 8 7 7 7 7 7 7 7 7 7 7 7 7 7 7 7 7 7 6 6 6 7 6 6 7 7 6 6 6 6 6 5 5 4 4 4 4 4 4 5 4 4 4 3 3 3 3 3 3 3 3 3
25 27 27 27 27 26 25 24 23 23 22 22 22 21 21 20 19 18 18 17 16 15 15 14 14 13 12 12 11 11 10 10 9 8 8 7 7 7 6 6 6 6 7 7 7 7 6 7 6 7 6 6 6 6 6 6 6 6 6 5 5 5 5 5 5 4 4 4 4 4 4 4 4 4 4 4 3 3 3 3 3 3 3 3 3
26 27 28 27 27 27 26 25 24 24 23 23 23 22 21 21 20 19 18 18 17 16 16 15 14 14 13 12 12 11 11 10 9 9 8 7 7 7 6 6 6 6 6 6 6 6 6 6 6 6 6 6 6 6 6 5 5 5 5 5 5 5 5 5 5 4 3 3 3 3 3 3 3 3 3 3 3 3 3 3 3 3 3 3 3
26 28 28 28 27 27 27 26 25 24 24 24 24 23 22 22 21 20 20 19 18 17 16 16 15 14 14 13 12 12 12 11 10 9 9 8 8 7 7 6 6 5 5 5 5 5 5 5 6 6 6 6 6 6 6 5 5 5 4 4 4 4 4 4 4 4 3 2 2 3 3 3 2 3 2 3 3 3 3 3 3 3 3 3 3
26 27 28 28 28 28 28 27 26 25 25 25 25 24 23 23 22 21 21 20 19 18 17 16 16 15 14 13 13 12 12 12 11 10 9 9 8 8 7 7 6 5 5 5 5 5 5 5 5 5 5 6 6 6 5 5 5 4 4 4 4 4 4 3 3 4 4 3 3 3 3 3 2 2 2 2 2 2 3 3 3 3 3 3 3
26 27 28 28 29 28 28 28 27 26 26 26 25 25 24 23 23 22 21 20 20 19 18 17 16 15 15 14 13 13 13 12 11 11 10 9 9 8 8 7 6 6 5 5 4 4 4 4 4 4 4 5 5 5 5 5 4 4 4 4 4 4 3 3 3 3 3 3 4 3 3 3 3 2 3 3 2 3 3 3 3 3 3 3 3
26 27 28 29 29 29 29 28 28 27 27 27 26 26 25 24 23 23 22 21 21 19 18 18 17 17 16 15 14 13 13 13 12 11 11 10 9 9 8 8 7 6 5 5 4 4 4 4 3 4 4 4 4 4 5 4 4 4 4 4 4 4 3 3 3 3 3 3 3 3 4 3 3 3 3 3 3 3 3 3 3 3 3 3 3
26 27 28 29 29 29 29 29 29 28 28 27 27 27 26 24 24 23 23 22 21 20 19 19 18 18 17 16 16 14 14 13 13 12 12 11 10 9 9 8 8 7 6 5 5 4 4 3 3 3 3 3 3 4 4 4 4 4 4 4 4 4 3 3 3 3 3 3 3 3 3 3 3 3 3 3 3 3 3 3 3 3 3 3 4
26 26 27 28 29 29 29 30 29 29 28 28 28 27 26 25 24 24 24 23 22 21 21 20 19 19 18 17 17 16 15 14 13 13 12 12 11 10 9 9 8 7 6 6 5 5 5 4 3 3 3 3 3 3 3 3 3 3 3 3 3 3 3 3 3 3 3 3 2 2 2 3 4 3 3 3 3 3 3 3 3 3 3 3 3
Wind_Direction
135 133 132 131 128 127 127 126 125 123 122 121 121 120 120 120 121 123 124 124 124 124 124 123 122 121 118 117 114 114 113 112 111 111 111 110 108 106 102 98 96 96 96 95 94 92 92 94 98 104 109 114 118 123 127 127 126 129 130 124 115 114 122 123 122 128 129 128 131 134 139 142 142 137 133 131 128 123 119 114 108 102 96 92 89
136 133 133 133 130 129 127 126 125 125 124 123 122 121 121 122 124 124 125 125 125 126 125 125 124 123 120 118 116 115 113 111 111 110 110 109 107 105 101 98 97 97 97 95 93 92 92 95 99 102 106 108 111 116 120 120 119 122 119 112 109 109 111 114 117 121 122 121 124 128 132 135 139 138 132 132 132 127 122 116 110 107 100 95 92
135 134 134 134 131 129 127 126 126 126 125 124 123 123 123 125 125 125 125 126 126 126 126 126 125 123 121 119 117 115 113 111 110 108 107 108 106 103 100 98 99 99 97 95 92 90 91 94 98 101 105 107 109 113 115 116 116 117 113 109 108 106 105 106 111 115 117 119 125 127 128 130 132 134 133 132 132 129 122 115 110 107 102 97 94
135 135 134 134 133 130 127 126 126 126 125 124 124 124 125 126 126 126 125 124 124 124 124 124 123 121 119 118 117 115 113 111 109 106 105 106 105 102 101 100 100 99 97 93 90 89 91 92 95 99 104 106 108 111 112 113 113 112 109 108 107 105 103 103 106 109 114 119 125 124 125 128 126 128 131 130 129 127 121 115 110 106 102 100 96
135 136 135 134 133 131 128 127 126 125 125 124 125 126 126 126 125 124 123 123 122 122 122 121 120 118 117 116 116 114 113 110 107 103 102 103 103 102 101 101 99 98 96 90 87 89 91 92 95 98 102 104 107 109 111 111 110 107 105 104 103 102 100 100 102 107 115 118 122 122 124 126 122 122 124 128 128 125 121 117 112 108 106 102 97
136 136 136 135 133 131 129 127 126 125 126 126 127 126 126 125 125 124 123 122 121 121 120 119 118 116 116 115 115 113 111 107 105 103 100 101 102 102 101 101 98 96 95 89 87 89 90 91 94 97 99 100 104 108 110 109 108 105 103 102 99 99 97 97 100 106 112 112 112 117 122 123 119 119 120 125 124 122 121 118 114 111 108 104 99
138 137 137 135 133 132 130 129 127 126 127 128 128 127 125 125 124 123 122 121 121 120 119 118 117 116 114 114 113 111 108 106 104 102 101 100 100 101 101 99 98 96 93 88 87 89 90 90 92 95 98 99 101 106 108 107 106 105 103 101 98 96 94 94 98 103 106 106 108 111 118 118 118 118 116 118 118 118 119 117 116 113 108 104 100
139 138 137 136 135 134 132 130 128 128 128 129 129 127 126 125 124 123 122 121 120 119 118 116 116 115 114 112 111 109 107 105 103 101 101 100 100 101 101 99 97 96 92 88 88 90 90 90 91 93 97 100 101 104 107 106 105 105 103 101 97 93 91 92 95 98 98 102 108 109 110 111 113 114 113 113 114 116 118 118 116 112 107 104 100
141 139 138 137 136 135 132 131 130 129 130 130 130 128 126 125 124 123 123 122 120 119 117 116 116 114 113 111 110 108 106 105 102 101 100 99 99 99 99 98 96 94 92 88 88 90 91 90 89 91 94 98 101 102 104 105 105 104 103 100 97 94 92 92 92 95 95 98 104 104 103 104 107 110 111 112 114 116 117 115 111 109 107 104 100
141 140 139 137 137 135 133 132 131 131 131 131 130 128 127 126 125 124 123 122 120 119 117 116 115 112 111 109 108 106 105 103 102 100 99 99 98 97 96 95 94 94 92 89 89 90 90 90 89 89 92 95 100 102 103 103 104 104 103 101 98 95 93 92 92 92 94 96 99 102 102 103 104 106 108 110 111 111 110 109 107 107 106 103 99
141 140 139 138 138 136 134 133 133 132 132 132 131 129 127 126 126 125 124 123 121 119 117 116 114 112 110 108 107 106 103 102 101 100 98 97 97 97 95 94 94 93 93 90 90 91 89 89 89 90 92 94 99 104 106 104 104 103 103 101 98 95 92 91 91 90 93 95 98 101 102 104 106 105 105 106 106 105 105 106 106 105 104 101 98
140 140 139 139 138 137 136 135 134 134 134 133 132 130 128 127 127 126 125 123 122 120 118 116 115 112 111 109 107 104 102 101 100 99 98 97 96 97 95 93 93 92 93 91 91 92 89 89 89 89 92 94 100 106 109 106 104 103 102 100 97 94 91 90 89 88 92 96 97 98 100 103 105 104 104 104 103 104 105 106 105 103 101 99 97
141 141 141 140 139 138 137 136 136 135 135 134 133 131 129 129 129 127 126 124 123 120 119 117 115 112 111 110 106 103 102 101 99 99 98 98 97 96 95 93 92 92 92 92 92 93 90 89 89 88 88 89 94 99 102 102 102 101 101 100 98 95 92 90 89 87 90 96 99 99 99 100 103 104 105 104 103 105 106 105 104 103 101 99 97
143 143 143 142 140 139 139 137 136 136 136 135 134 132 131 130 130 128 126 125 123 121 119 117 114 112 111 108 105 104 103 100 98 98 97 97 97 96 96 94 93 92 92 92 92 93 92 90 90 89 87 86 87 89 93 97 101 102 101 101 99 96 92 91 89 88 88 94 100 102 102 101 104 106 106 106 106 106 106 105 104 103 102 100 97
145 146 145 143 142 140 140 138 137 137 137 136 135 134 132 131 130 129 127 126 124 122 120 118 115 112 110 107 106 104 102 100 98 98 97 96 96 96 95 94 93 92 91 91 91 92 92 90 89 89 88 87 87 89 91 96 100 101 102 101 100 97 93 92 91 90 90 91 95 101 104 105 106 108 108 107 106 106 106 105 104 103 102 99 96
147 147 146 144 143 142 141 140 139 139 138 138 137 135 133 132 131 130 129 127 125 123 121 118 116 113 111 108 106 104 102 100 99 98 96 96 95 95 95 93 93 92 91 90 90 91 91 89 88 88 89 90 90 90 92 94 97 99 101 101 100 98 95 93 93 93 93 93 94 97 100 103 105 108 108 107 105 106 106 106 105 104 102 98 96
148 149 148 146 144 143 142 142 141 140 140 140 138 137 134 134 133 132 130 128 127 124 121 119 117 114 112 109 107 105 102 100 99 98 97 96 95 94 94 93 92 91 91 90 90 90 89 87 86 87 90 91 91 91 92 93 95 97 98 99 99 98 95 94 94 95 95 95 96 97 99 101 104 108 109 108 106 107 107 107 106 105 102 98 96
150 151 150 147 146 145 143 143 142 142 142 142 141 139 137 136 135 134 132 130 128 126 123 121 118 116 112 110 107 105 102 101 99 98 97 97 96 94 93 93 92 90 90 89 90 90 88 86 86 87 90 92 92 92 92 93 94 95 96 97 98 96 94 93 95 97 97 97 96 98 100 102 104 107 109 109 108 108 107 107 106 105 103 100 98
152 153 152 149 148 146 145 145 144 144 144 143 143 141 139 137 137 135 134 132 131 128 126 123 121 118 114 111 108 106 103 101 99 98 98 97 96 94 93 92 91 90 89 89 89 89 89 87 86 87 89 91 92 93 92 93 94 95 95 96 96 94 92 93 95 97 98 98 97 99 101 102 104 107 109 108 108 108 107 105 103 103 102 100 100
155 155 154 152 150 148 147 147 146 146 146 145 144 143 141 140 139 138 136 135 133 131 128 126 123 120 116 113 110 108 105 102 100 99 98 96 96 94 94 93 92 90 89 89 89 89 89 88 88 88 89 90 92 93 92 92 93 94 95 96 96 93 92 93 94 97 98 98 98 99 99 100 102 104 106 106 108 108 105 103 102 101 101 100 100
158 158 157 154 152 151 149 148 148 147 146 146 145 145 144 143 142 140 139 138 136 134 131 129 126 122 119 116 113 110 107 105 103 101 99 96 95 94 94 93 93 92 90 90 89 89 89 89 89 89 90 90 92 93 92 91 92 93 94 95 94 92 93 94 95 96 98 98 97 98 98 98 98 101 103 104 106 107 106 105 103 102 102 101 103
162 162 160 158 155 153 152 150 150 149 148 147 147 147 146 146 144 143 142 140 139 136 134 132 128 124 121 118 116 113 109 107 105 102 100 98 96 94 93 93 93 92 91 91 90 90 90 90 91 91 91 91 91 91 91 90 90 91 93 94 92 92 94 95 96 97 98 98 97 97 97 96 96 98 100 102 103 105 106 107 106 104 104 103 103
165 165 162 160 159 156 155 153 152 151 150 148 148 148 147 147 145 144 143 142 141 139 137 134 130 127 124 122 119 115 111 108 105 103 101 100 97 96 95 94 93 92 92 91 90 91 92 93 93 93 92 90 90 90 90 90 89 90 91 92 92 93 94 95 97 98 98 99 99 98 97 96 95 96 98 100 101 102 104 106 107 106 105 104 103
167 167 165 163 162 160 158 155 155 154 152 150 150 149 148 148 147 146 145 145 143 141 139 136 133 130 128 126 122 118 113 110 107 104 102 101 100 98 97 96 94 94 94 92 91 92 94 94 95 95 92 90 90 90 89 88 88 88 89 91 93 95 95 96 97 98 100 100 101 100 98 96 96 95 95 97 98 99 101 103 104 105 106 105 103
168 168 167 165 164 162 160 157 157 157 155 153 152 151 150 149 149 148 147 146 145 144 141 138 136 134 132 128 125 121 115 113 110 106 104 103 103 101 99 98 97 96 95 94 93 92 93 93 93 94 92 90 90 89 88 87 87 86 87 89 91 95 96 97 97 99 101 102 101 101 99 97 97 95 94 94 94 96 97 99 99 101 104 104 103
170 170 169 167 166 165 162 160 159 159 158 156 154 153 152 151 150 149 148 147 147 146 142 140 139 137 134 130 126 122 116 114 112 110 107 105 104 102 100 99 98 97 97 96 95 93 92 92 91 92 93 92 91 90 90 88 87 87 87 87 88 93 96 97 97 98 101 102 102 102 102 100 99 97 95 94 93 93 94 97 97 97 99 101 101
172 171 170 169 168 167 164 162 161 161 161 159 157 155 154 152 151 149 148 147 147 146 143 142 141 138 135 131 127 122 117 115 113 113 110 107 105 103 102 101 99 98 98 97 96 94 93 93 92 94 94 95 93 92 91 90 89 89 88 87 88 91 95 97 98 99 100 101 103 103 103 102 101 99 97 95 94 94 93 95 96 96 97 99 101
173 172 171 170 170 169 166 164 163 163 163 162 159 156 156 154 152 150 148 148 146 145 144 142 141 138 136 132 128 122 117 114 113 113 111 108 107 105 104 103 101 99 98 98 97 96 95 94 95 97 98 98 96 94 93 92 90 89 88 88 89 90 94 97 98 100 99 100 103 104 104 103 101 99 98 97 95 94 94 94 95 96 97 98 101
174 172 171 171 171 170 168 166 165 164 164 163 161 157 157 155 153 152 150 148 147 146 144 142 141 139 136 133 128 122 117 113 111 110 110 110 109 108 105 103 102 101 100 99 99 99 98 96 97 101 104 103 100 98 96 95 92 89 89 89 90 92 95 98 99 101 101 101 103 104 104 103 101 99 99 98 97 95 95 95 95 96 97 98 100
175 174 173 172 172 171 169 168 167 166 165 164 162 159 158 156 154 153 152 150 149 147 145 142 141 139 136 134 129 122 117 112 110 110 110 110 110 108 105 103 102 101 101 99 100 100 100 100 100 103 108 109 106 104 102 99 96 91 90 91 92 94 97 99 100 102 102 102 103 103 103 102 101 101 100 101 100 98 97 97 97 97 96 96 97
177 175 174 173 173 172 171 169 168 167 166 166 163 161 159 156 155 154 154 153 151 148 146 144 142 139 137 134 130 124 117 112 111 110 110 109 109 108 105 104 102 101 100 98 100 101 101 102 103 103 108 113 113 112 110 105 100 93 91 93 95 97 99 100 101 102 102 102 102 102 102 103 104 105 105 106 104 103 102 101 100 99 98 96 95
179 178 175 174 174 173 173 171 170 169 168 167 165 162 159 157 155 155 155 155 153 151 149 146 144 141 138 135 130 124 118 114 114 111 110 109 108 107 105 103 101 100 99 98 101 103 104 105 106 105 107 113 116 118 118 112 104 96 93 96 99 101 102 102 102 102 101 101 101 102 104 106 108 109 110 110 107 107 106 104 103 102 101 99 97
180 179 177 175 175 175 174 173 172 171 169 168 166 164 161 159 157 157 156 155 154 153 151 148 146 143 138 135 130 125 120 117 116 113 112 110 108 106 104 101 99 98 99 99 100 102 104 106 108 108 107 112 116 119 121 118 109 100 97 99 103 106 105 105 104 102 101 100 100 102 106 108 110 111 112 111 109 108 106 104 103 102 101 98 96
181 180 180 178 176 176 176 176 174 173 171 169 168 166 163 162 160 159 158 156 155 153 151 150 147 143 140 136 132 128 124 119 118 116 113 110 107 105 102 100 98 98 99 100 101 101 103 104 105 106 107 111 114 118 121 120 114 105 100 102 107 110 109 108 107 105 103 102 102 104 108 110 112 113 112 111 110 108 106 104 101 99 98 96 93
183 182 182 180 178 178 178 177 176 175 174 172 171 169 166 165 164 162 161 159 157 155 153 150 148 145 141 139 137 132 127 124 120 118 114 110 107 104 101 99 98 99 98 99 100 100 100 100 99 100 105 108 109 115 118 119 116 110 105 105 109 111 111 111 110 108 106 105 105 107 110 111 113 114 113 112 111 110 107 104 100 96 94 93 89
185 184 184 183 181 180 180 179 178 177 176 175 174 173 170 168 167 166 164 161 159 157 155 152 149 147 144 143 142 136 131 127 123 119 115 110 107 103 101 100 99 99 98 99 98 97 97 96 95 97 102 106 108 111 116 119 118 113 109 108 111 113 113 113 111 110 109 108 108 109 111 112 114 115 114 111 110 108 106 104 100 94 90 87 82
187 186 186 185 184 183 182 182 181 180 179 179 178 176 174 172 171 170 168 165 162 160 158 154 151 149 148 146 145 141 135 131 126 121 116 112 108 105 102 102 101 100 99 98 96 96 95 94 94 96 100 104 107 110 116 121 120 117 113 111 113 114 115 115 114 112 112 111 110 110 110 110 112 114 114 111 109 107 105 106 103 97 92 83 74
189 189 188 188 187 185 185 185 183 182 182 181 181 180 178 176 176 174 172 169 167 164 161 158 155 153 152 150 147 145 139 135 130 124 119 114 111 108 105 104 103 100 98 98 96 96 95 94 95 97 100 103 104 109 117 120 122 120 115 114 116 117 118 118 116 114 113 111 110 111 111 111 111 112 113 111 109 106 104 107 106 98 89 77 65
189 190 190 190 189 188 188 187 186 185 184 184 183 182 182 180 180 178 176 174 172 169 165 162 160 158 157 155 151 149 145 140 135 129 124 119 115 112 109 106 104 101 98 97 97 96 95 95 96 98 100 102 102 107 115 119 121 120 117 117 118 119 120 120 118 116 114 110 108 109 109 108 108 110 110 108 106 103 101 101 93 80 70 62 50
191 191 192 192 191 190 190 190 189 188 187 186 186 185 185 184 183 182 180 179 177 175 171 168 166 163 162 160 157 154 151 146 142 137 131 126 121 117 114 111 107 102 99 97 97 96 96 96 97 99 101 102 101 106 115 119 120 118 117 119 117 119 122 121 120 117 114 110 106 105 104 100 101 106 107 105 102 98 95 91 79 63 55 47 33
192 193 194 194 193 192 192 192 192 191 190 189 189 188 187 186 185 185 184 182 181 179 177 174 172 170 167 165 163 161 157 154 150 146 141 135 129 123 120 116 111 107 103 100 98 96 96 96 97 99 103 104 102 107 116 120 119 117 118 120 118 119 122 122 121 119 112 107 103 100 97 93 94 101 106 101 95 90 84 77 67 54 46 33 24
194 194 195 195 195 194 194 194 194 193 193 192 191 190 189 188 187 187 186 184 184 183 181 180 178 175 173 170 169 167 164 162 159 156 152 147 140 132 127 123 118 114 109 104 100 97 97 97 97 98 102 106 104 108 117 120 120 120 122 124 124 125 126 125 123 119 113 106 103 98 92 88 89 93 98 96 88 83 77 68 60 50 43 33 27
196 196 197 197 196 196 197 197 196 195 194 194 193 192 192 191 190 190 189 186 186 186 184 183 182 180 177 176 175 173 171 169 167 165 162 158 152 143 136 131 126 121 114 109 104 100 99 98 99 100 101 106 106 109 119 122 119 120 124 125 126 129 130 129 125 119 114 106 100 97 90 85 85 86 88 89 85 81 75 66 58 49 44 39 32
197 198 198 199 199 198 198 198 198 196 195 194 194 194 194 193 192 192 192 190 189 188 187 186 186 184 182 181 180 179 177 175 173 172 169 166 162 154 146 139 134 128 120 115 109 104 101 100 101 100 101 105 106 110 120 125 121 121 126 125 125 128 129 133 131 123 118 110 100 96 92 88 87 83 82 85 83 78 71 61 55 49 43 38 34
198 199 199 200 200 200 199 199 199 197 196 195 195 196 195 194 194 193 193 192 192 191 190 189 189 188 187 186 185 184 183 182 179 177 176 173 169 164 157 149 142 137 130 123 116 110 105 102 101 101 101 102 104 110 117 123 126 126 129 128 126 124 119 123 127 120 116 112 105 99 95 96 96 88 80 81 77 69 66 58 51 48 44 38 34
199 200 200 200 201 201 200 200 200 198 197 196 196 197 197 196 196 195 194 194 195 195 193 192 192 192 191 190 190 189 188 187 185 182 181 179 176 172 166 160 152 147 142 134 123 115 110 106 103 102 102 101 103 108 113 117 123 127 130 128 126 122 114 117 121 114 108 102 102 106 103 97 97 92 80 77 76 69 64 55 49 46 42 38 31
200 200 201 201 202 202 202 201 201 200 199 198 198 198 200 199 198 198 198 197 198 198 197 196 195 195 195 193 192 193 192 191 189 187 186 183 180 177 174 169 163 159 155 146 135 126 119 112 108 104 101 101 102 105 109 112 116 122 128 130 129 125 120 122 118 110 110 103 95 100 102 94 86 84 78 72 73 70 58 45 42 40 34 32 28
200 200 201 202 203 203 203 202 202 202 202 201 200 200 202 201 200 201 200 201 202 202 200 199 198 197 197 196 195 196 194 194 193 191 189 187 184 181 178 176 172 170 167 160 152 143 132 122 116 111 105 104 104 104 107 111 112 114 121 127 128 127 125 121 110 102 104 103 98 97 96 87 73 69 67 59 57 57 47 37 36 34 27 25 26
202 202 202 202 203 204 204 203 203 203 204 203 202 202 203 202 202 202 202 203 204 204 203 202 201 199 199 199 198 199 197 196 197 195 193 191 189 185 182 180 179 178 177 173 170 163 152 141 132 125 117 111 108 107 108 111 111 110 113 120 123 124 124 118 113 110 100 91 91 90 86 79 70 70 67 57 53 46 38 37 34 31 29 26 29
204 203 202 203 203 204 205 204 204 204 205 204 203 204 204 203 203 203 203 204 205 205 204 204 203 201 201 200 201 202 201 199 199 199 198 196 194 191 188 186 184 185 184 183 183 181 175 166 156 147 138 128 121 117 115 115 113 112 113 118 121 120 119 114 113 110 99 93 87 77 74 67 63 68 65 54 48 39 35 40 36 36 41 39 38
204 203 203 203 204 205 206 205 205 205 206 205 205 205 205 204 204 204 205 205 205 205 205 205 204 203 202 202 203 203 203 203 202 202 202 200 198 196 194 191 190 190 191 190 191 191 189 186 179 170 162 153 143 135 131 125 122 121 121 124 125 123 122 117 112 103 95 95 90 73 62 56 53 55 56 51 46 42 46 49 47 48 52 51 48